Wind_Speed
18 18 18 18 19 19 19 15 16 12 10 15 13 16 16 22 18 18 23 21 21 14 12 13 12 13 10 8 3 3 7 10 9 10 11 10 10 12 10 11 11 9 2 6
22 24 18 14 18 19 18 18 20 19 11 7 8 17 16 12 15 13 16 18 18 15 20 14 13 12 11 9 7 10 10 10 10 12 11 9 10 11 12 10 9 7 4 2
24 19 11 19 20 17 15 19 21 23 18 17 16 17 12 12 10 15 14 14 12 15 17 19 11 11 11 16 16 15 10 16 15 15 15 12 10 11 13 11 10 8 5 3
24 26 23 16 16 17 15 15 18 19 14 9 9 9 11 9 8 8 7 10 12 13 16 20 19 11 19 17 19 18 17 19 15 19 17 13 9 11 13 14 12 11 8 7
20 14 19 23 18 13 13 10 11 17 17 13 12 7 11 13 7 8 11 13 15 15 10 19 18 22 18 17 30 19 16 23 16 19 16 13 12 9 14 16 14 13 12 10
19 16 14 14 15 11 12 13 13 10 10 11 8 7 16 11 9 9 13 15 18 14 9 18 21 25 24 24 22 24 16 17 11 10 9 10 11 13 17 17 17 15 14 13
26 26 23 17 16 15 13 13 5 7 6 9 8 6 19 13 12 10 16 16 17 12 11 17 23 22 25 24 9 21 18 14 14 9 9 8 10 15 17 15 16 16 14 14
22 14 23 20 21 15 15 11 8 9 7 10 8 6 11 14 13 15 18 15 11 7 10 17 23 21 17 19 31 28 16 11 17 9 8 9 12 13 12 16 13 14 12 14
14 13 10 7 17 17 13 12 11 4 1 3 7 12 14 14 18 16 18 15 9 10 12 14 19 22 24 22 21 16 15 15 11 7 5 9 11 7 13 13 7 6 11 12
18 12 10 11 10 21 19 13 6 7 4 6 6 8 12 14 15 15 12 10 12 11 10 16 17 18 19 23 24 21 19 13 6 7 6 8 9 6 9 11 8 4 1 5
24 19 11 8 9 13 17 17 11 6 5 6 8 6 10 14 11 10 3 6 13 13 16 14 10 10 15 16 25 28 17 10 6 4 5 8 7 6 7 6 5 6 5 1
25 18 21 20 19 20 14 11 12 7 6 8 5 8 9 11 14 10 9 8 16 17 16 8 9 8 3 23 19 6 13 9 3 2 4 7 7 7 8 6 4 4 3 1
20 20 16 13 12 17 17 15 15 14 14 12 7 4 5 4 7 7 8 11 10 12 11 8 3 5 5 11 11 7 11 8 5 2 4 7 7 6 8 6 4 3 4 4
10 16 17 20 18 13 16 15 16 15 9 10 11 8 6 10 13 11 11 13 14 14 10 5 5 4 6 7 10 9 9 6 3 3 5 5 5 7 8 7 4 4 5 4
7 7 12 15 14 17 16 14 18 14 10 7 9 8 5 7 9 13 14 15 17 16 9 7 7 6 5 5 7 6 5 2 4 5 7 7 5 6 3 4 7 7 7 5
4 4 5 6 7 12 17 16 13 13 15 12 10 7 2 4 8 6 7 12 12 12 12 8 6 8 7 6 9 7 7 6 6 7 10 9 7 6 5 3 6 8 10 4
7 3 4 5 9 8 6 8 14 15 14 12 8 4 5 5 10 10 9 12 10 13 15 11 9 12 11 9 9 6 10 9 9 9 11 12 10 7 4 4 4 7 7 3
8 7 5 4 8 5 6 10 14 12 12 9 5 2 7 10 14 16 16 16 17 15 15 9 13 14 13 14 13 10 14 11 14 11 14 14 10 9 5 4 4 5 5 4
13 11 4 4 6 6 10 15 17 14 10 8 8 9 6 10 13 16 17 20 22 21 17 12 17 17 19 20 19 16 15 10 14 13 14 13 12 11 6 5 5 4 5 4
20 18 13 7 6 7 14 18 16 14 13 11 10 7 8 10 15 18 21 21 20 22 18 13 17 17 16 16 18 14 13 19 23 13 15 16 14 13 11 9 8 6 7 6
5 12 17 18 8 5 14 14 12 13 10 12 12 11 9 9 13 16 18 15 12 10 9 13 16 14 14 11 9 12 13 12 16 22 18 16 17 16 15 12 12 10 10 11
8 6 8 10 9 6 9 11 15 13 13 11 10 10 10 10 11 12 14 13 8 5 11 14 15 15 14 10 5 8 10 16 21 20 19 16 18 19 17 17 16 14 16 16
7 10 9 9 9 11 13 12 13 12 9 6 6 6 7 8 9 12 15 15 10 11 12 14 19 22 22 15 13 13 14 18 24 25 23 23 20 19 22 23 23 30 26 22
12 10 14 14 14 12 10 8 6 5 5 6 8 10 12 14 16 18 19 20 21 17 19 20 22 24 29 30 31 29 25 27 30 29 31 31 30 26 25 25 20 20 26 22
8 10 9 14 11 7 4 2 3 5 6 9 12 15 17 19 21 23 25 26 26 27 30 30 31 32 33 33 34 38 36 37 34 30 31 30 25 30 30 29 25 23 22 22
8 8 6 4 2 3 4 5 6 9 12 14 16 18 21 23 25 27 29 29 29 30 34 36 37 39 39 37 35 36 37 30 30 30 30 28 26 27 27 25 24 22 22 22
Wind_Direction
219 228 232 232 232 246 259 263 265 250 269 277 285 288 319 301 273 268 274 273 258 238 206 215 202 230 245 263 269 296 300 293 309 303 306 319 326 322 328 342 355 17 55 228
224 236 239 233 231 242 254 256 257 248 267 289 290 304 304 288 268 290 276 274 259 251 225 224 214 229 231 272 237 236 248 267 250 273 286 300 310 320 318 324 332 341 5 99
229 239 238 241 236 239 244 246 249 246 268 287 290 293 302 311 282 275 268 279 280 246 229 227 226 232 224 252 260 256 254 265 278 263 277 286 303 307 306 309 308 305 296 280
241 243 242 237 238 233 255 250 249 257 267 274 257 290 297 323 344 313 310 298 296 267 230 216 222 220 224 235 256 283 272 349 264 272 279 284 302 299 301 301 290 285 268 258
236 248 233 228 228 231 254 278 272 246 252 268 250 240 279 309 309 320 321 321 300 285 254 210 215 219 228 231 241 307 279 331 302 256 253 276 297 310 303 294 280 272 266 253
243 225 226 229 218 235 267 281 284 247 226 242 237 225 278 290 288 314 310 301 305 287 273 238 223 222 226 240 249 289 292 330 292 278 260 271 292 307 305 296 280 266 256 249
238 235 238 242 244 244 251 258 246 213 209 245 250 234 269 290 277 302 312 298 310 291 265 268 250 235 239 255 323 296 307 319 317 301 326 312 306 306 303 299 281 268 248 234
218 235 234 228 232 234 236 234 226 237 227 250 254 235 278 295 279 286 296 286 312 303 298 274 257 254 244 246 298 314 284 278 311 304 321 316 314 311 326 315 285 260 230 231
201 223 212 207 224 202 222 226 231 224 201 252 253 275 288 294 282 270 269 284 297 278 282 291 289 271 257 244 238 273 292 328 306 308 311 323 315 332 353 348 311 201 223 233
233 241 230 208 243 228 234 231 224 214 180 241 232 250 273 289 291 267 256 275 288 280 306 310 304 304 288 285 246 271 290 258 264 303 323 322 321 357 2 24 46 94 193 211
226 223 228 215 232 218 220 228 227 229 208 268 269 256 249 274 309 334 295 291 285 273 299 303 315 344 321 302 295 271 253 236 250 320 310 322 329 339 349 355 41 58 84 110
219 225 235 239 247 248 257 244 260 231 224 205 230 253 281 267 275 296 291 285 283 288 288 296 336 336 12 42 19 165 195 233 261 284 303 328 330 336 333 336 341 348 333 184
213 214 228 237 237 244 236 246 262 230 237 221 213 241 246 232 248 260 268 274 283 281 280 295 326 300 141 86 82 202 220 221 267 249 297 334 331 352 342 341 316 317 314 305
224 216 219 234 236 228 229 244 233 209 199 210 213 198 219 247 248 240 233 249 270 267 255 278 245 249 188 127 161 176 208 223 289 265 285 311 327 329 339 353 335 292 278 273
191 237 231 239 235 219 225 234 207 208 209 190 184 163 193 241 260 247 238 239 265 277 252 268 268 223 183 201 211 231 248 271 321 314 286 296 279 309 329 23 17 349 289 253
287 234 189 164 156 170 178 175 182 191 175 166 165 159 162 354 340 314 255 252 267 261 242 260 265 222 214 226 210 234 257 268 293 303 274 277 275 286 309 318 343 352 11 256
260 261 203 181 167 156 152 185 187 181 178 172 166 182 225 287 317 333 289 271 275 253 242 231 247 229 230 214 214 247 274 262 274 286 264 262 261 268 276 331 337 335 16 11
239 231 223 209 174 198 188 166 167 179 165 160 156 198 287 298 297 297 293 287 268 257 254 227 232 229 214 209 214 255 248 242 284 279 253 252 253 250 262 312 316 326 338 42
243 237 226 192 182 164 168 169 170 173 180 204 239 246 256 270 278 292 285 266 267 258 253 241 224 229 215 218 225 260 219 255 270 256 247 247 251 242 260 275 283 289 297 318
231 230 219 203 186 188 198 194 197 205 209 203 199 215 233 274 306 296 290 299 288 266 251 212 235 245 240 239 237 234 209 276 264 264 242 245 251 246 244 249 253 254 275 294
193 216 219 213 219 203 190 196 192 187 221 214 218 216 257 283 298 300 293 306 306 279 247 235 227 242 234 226 239 248 239 255 260 263 245 250 252 248 246 242 243 250 268 284
234 222 206 202 197 201 190 198 202 221 216 223 223 240 257 262 275 285 309 331 323 237 224 218 221 223 224 211 221 231 251 249 270 261 251 240 252 249 243 240 239 260 272 279
200 215 204 192 187 165 180 202 200 202 204 208 230 244 254 264 275 287 293 295 291 282 263 244 237 228 219 249 252 243 254 263 260 250 260 256 258 255 246 239 248 269 261 268
160 145 146 135 141 140 137 139 150 167 207 230 246 256 266 268 268 268 270 270 270 253 237 242 243 243 241 253 263 245 262 272 247 252 246 252 253 255 260 273 248 249 255 268
147 137 150 137 138 136 132 157 216 230 256 272 276 276 276 277 277 274 266 262 258 253 251 249 250 249 250 255 249 253 260 258 245 240 244 246 255 257 256 261 254 251 257 263
146 146 149 168 248 303 289 261 249 251 259 266 273 276 279 278 282 280 277 272 266 261 256 252 253 253 255 256 251 247 244 237 233 231 239 237 241 246 256 254 248 248 253 264
Height
3185 3186 3186 3188 3190 3190 3190 3190 3190 3190 3191 3190 3190 3187 3185 3185 3184 3183 3183 3184 3186 3188 3188 3186 3188 3189 3189 3189 3190 3191 3191 3191 3189 3188 3186 3184 3183 3182 3179 3179 3175 3171 3169 3168
3183 3180 3183 3185 3186 3187 3187 3188 3187 3187 3188 3188 3187 3185 3183 3182 3180 3179 3178 3177 3180 3183 3183 3185 3185 3185 3189 3191 3187 3185 3186 3185 3179 3183 3183 3182 3180 3178 3178 3177 3176 3173 3171 3169
3177 3179 3181 3181 3182 3184 3184 3183 3184 3185 3184 3184 3183 3181 3180 3179 3176 3175 3174 3173 3173 3174 3177 3182 3184 3184 3187 3184 3186 3185 3185 3180 3182 3182 3181 3180 3178 3177 3176 3175 3175 3174 3172 3171
3173 3175 3176 3178 3178 3181 3180 3180 3180 3179 3180 3181 3181 3179 3177 3176 3174 3172 3171 3171 3170 3170 3172 3177 3179 3182 3176 3179 3179 3180 3173 3178 3176 3179 3179 3178 3175 3175 3174 3174 3173 3172 3172 3171
3169 3169 3170 3173 3175 3177 3177 3176 3175 3175 3175 3177 3177 3179 3174 3173 3172 3171 3169 3168 3166 3165 3167 3170 3173 3172 3173 3177 3172 3171 3174 3175 3173 3174 3175 3175 3174 3173 3173 3171 3170 3169 3169 3169
3165 3167 3168 3170 3173 3173 3173 3173 3171 3171 3171 3173 3172 3174 3168 3170 3170 3169 3166 3165 3164 3163 3164 3166 3167 3168 3168 3168 3172 3174 3175 3175 3175 3174 3172 3171 3171 3170 3169 3167 3165 3164 3164 3165
3160 3161 3164 3167 3168 3169 3170 3170 3169 3168 3167 3166 3168 3170 3166 3166 3166 3165 3164 3162 3162 3161 3162 3163 3162 3164 3166 3163 3167 3171 3172 3173 3173 3170 3168 3167 3167 3166 3165 3162 3159 3158 3159 3159
3155 3158 3158 3160 3162 3165 3165 3166 3164 3164 3163 3164 3164 3165 3165 3163 3163 3163 3161 3161 3161 3160 3161 3160 3160 3161 3161 3162 3156 3163 3162 3168 3168 3165 3165 3165 3164 3163 3160 3157 3153 3151 3153 3156
3150 3152 3154 3155 3158 3161 3161 3162 3162 3162 3162 3164 3163 3162 3162 3161 3159 3160 3159 3159 3159 3159 3158 3158 3158 3157 3154 3151 3153 3160 3160 3164 3163 3164 3163 3163 3163 3161 3156 3153 3149 3149 3151 3151
3147 3150 3150 3152 3154 3156 3157 3159 3160 3159 3161 3161 3160 3159 3158 3157 3155 3155 3156 3157 3157 3156 3156 3156 3158 3156 3154 3154 3156 3157 3157 3160 3160 3162 3160 3160 3160 3158 3157 3154 3151 3149 3150 3152
3141 3145 3147 3148 3149 3150 3152 3153 3155 3156 3156 3154 3155 3156 3155 3154 3154 3153 3154 3155 3154 3154 3154 3155 3156 3157 3157 3157 3152 3151 3155 3157 3158 3158 3158 3158 3158 3157 3156 3156 3154 3153 3152 3154
3135 3138 3140 3143 3145 3146 3148 3149 3150 3151 3153 3152 3153 3154 3152 3152 3152 3153 3153 3153 3151 3152 3152 3153 3154 3155 3156 3152 3146 3146 3155 3157 3156 3158 3158 3158 3157 3157 3156 3155 3154 3154 3154 3153
3130 3131 3135 3137 3140 3141 3142 3144 3144 3145 3146 3147 3149 3149 3148 3147 3148 3149 3149 3149 3149 3149 3150 3152 3153 3154 3154 3151 3149 3153 3154 3155 3157 3156 3156 3156 3157 3155 3156 3154 3154 3154 3155 3154
3126 3127 3128 3130 3133 3135 3137 3137 3139 3141 3141 3142 3144 3144 3145 3144 3144 3145 3145 3146 3145 3147 3148 3150 3151 3152 3153 3154 3155 3155 3157 3158 3157 3155 3155 3156 3156 3156 3154 3154 3154 3153 3153 3153
3125 3125 3125 3125 3127 3129 3132 3134 3135 3137 3138 3139 3141 3141 3141 3141 3141 3141 3142 3142 3143 3144 3147 3148 3149 3149 3151 3152 3154 3155 3156 3155 3154 3154 3157 3156 3156 3155 3154 3153 3153 3152 3150 3151
3124 3123 3122 3123 3125 3126 3127 3130 3132 3134 3135 3136 3138 3139 3139 3140 3139 3140 3139 3138 3139 3141 3144 3144 3145 3146 3148 3150 3152 3154 3155 3153 3153 3154 3155 3155 3155 3154 3153 3151 3151 3151 3149 3149
3122 3121 3122 3124 3125 3126 3129 3129 3130 3131 3133 3135 3136 3138 3137 3138 3138 3139 3138 3136 3135 3137 3138 3141 3142 3143 3144 3146 3148 3151 3153 3152 3152 3152 3153 3155 3154 3153 3151 3151 3150 3151 3149 3148
3120 3121 3122 3122 3124 3125 3126 3127 3129 3131 3133 3134 3135 3136 3137 3136 3136 3135 3136 3135 3133 3132 3134 3136 3137 3137 3141 3141 3142 3145 3148 3148 3149 3148 3151 3152 3151 3151 3150 3150 3151 3150 3150 3147
3117 3119 3120 3121 3122 3125 3125 3125 3128 3129 3132 3132 3133 3134 3134 3133 3133 3131 3130 3129 3129 3129 3129 3131 3131 3133 3135 3135 3137 3138 3141 3145 3146 3145 3146 3148 3148 3148 3148 3149 3151 3149 3148 3146
3112 3115 3119 3119 3119 3121 3121 3123 3125 3127 3128 3129 3130 3131 3131 3131 3130 3128 3125 3123 3122 3122 3123 3125 3127 3129 3131 3132 3134 3135 3135 3137 3139 3140 3141 3143 3143 3144 3145 3146 3147 3147 3146 3145
3110 3111 3113 3115 3116 3117 3118 3120 3122 3125 3128 3125 3127 3127 3127 3126 3125 3123 3120 3119 3118 3118 3119 3120 3124 3127 3127 3129 3130 3132 3133 3133 3135 3138 3137 3137 3137 3139 3141 3142 3144 3143 3142 3144
3109 3111 3111 3111 3114 3117 3117 3119 3122 3121 3120 3121 3122 3122 3122 3120 3118 3117 3116 3116 3116 3116 3116 3117 3119 3122 3123 3124 3126 3128 3129 3130 3131 3134 3132 3130 3133 3134 3135 3137 3139 3139 3139 3139
3108 3107 3108 3111 3110 3111 3112 3114 3115 3116 3117 3118 3119 3118 3117 3117 3115 3114 3112 3111 3112 3112 3113 3114 3115 3116 3117 3118 3120 3121 3124 3124 3125 3126 3126 3127 3126 3128 3129 3131 3133 3135 3135 3134
3104 3104 3105 3107 3110 3111 3112 3113 3113 3114 3115 3115 3114 3114 3114 3113 3111 3109 3108 3107 3106 3105 3105 3106 3107 3109 3111 3110 3112 3114 3116 3117 3119 3120 3120 3120 3120 3122 3123 3119 3125 3126 3128 3128
3104 3105 3106 3107 3109 3111 3112 3113 3113 3112 3112 3110 3109 3109 3107 3106 3104 3102 3101 3100 3098 3098 3099 3099 3098 3099 3100 3101 3102 3103 3104 3107 3108 3110 3112 3114 3115 3117 3117 3117 3118 3118 3121 3121
3104 3105 3107 3108 3109 3109 3110 3110 3110 3109 3107 3105 3104 3103 3100 3099 3096 3094 3092 3091 3090 3090 3088 3087 3087 3087 3088 3089 3091 3092 3094 3095 3098 3100 3103 3106 3109 3110 3109 3110 3112 3111 3113 3114